Date String (YYYY-MM-DD hh:mm:ss) UTC,Instrument flags,Ambient pressure (hPa),Sample flow (lpm),Bypass flow (lpm),Sample temperature (°C),Ambient temperature (°C),ASC tube jacket temperature (°C),LED temperature (°C),Box temperature (°C),Sample RH (%),Span deviation,Mass concentration (μg/m³),Mass concentration (μg/m³),Mass concentration (μg/m³)
DateTimeUTC,F1_M11,P_M11,Q1_M11,Q2_M11,T1_M11,T2_M11,T3_M11,T4_M11,T5_M11,U1_M11,ZSPAN_M11,X0_M11,X2_M11,X1_M11
2022-08-27 11:00:00,,0823.7,5.00,0.00,30.4,29.1,00.0,39.2,32.2,22.8,0000.0,0009.29,0003.79,0003.30
2022-08-27 11:01:00,,0823.6,5.01,0.00,30.4,29.2,00.0,39.3,32.2,22.8,0000.0,0009.23,0003.81,0003.30
2022-08-27 11:02:00,,0823.7,4.99,0.00,30.4,29.2,00.0,39.3,32.2,22.3,0000.0,0009.28,0003.83,0003.30
2022-08-27 11:03:00,,0823.7,5.01,0.00,30.4,29.2,00.0,39.3,32.3,22.6,0000.0,0009.30,0003.81,0003.30
2022-08-27 11:04:00,,0823.7,5.00,0.00,30.5,29.3,00.0,39.3,32.3,22.5,0000.0,0008.69,0003.82,0003.30
2022-08-27 11:05:00,,0823.7,4.99,0.00,30.5,29.3,00.0,39.3,32.3,22.4,0000.0,0008.90,0003.85,0003.30
2022-08-27 11:06:00,,0823.7,5.01,0.00,30.5,29.3,00.0,39.3,32.3,22.6,0000.0,0008.94,0003.85,0003.30
2022-08-27 11:07:00,,0823.7,4.99,0.00,30.5,29.3,00.0,39.3,32.3,22.6,0000.0,0009.00,0003.87,0003.31
2022-08-27 11:08:00,,0823.7,5.01,0.00,30.5,29.3,00.0,39.3,32.3,22.5,0000.0,0009.06,0003.88,0003.32
2022-08-27 11:09:00,,0823.7,4.99,0.00,30.5,29.3,00.0,39.3,32.3,22.5,0000.0,0008.49,0003.86,0003.33
2022-08-27 11:10:00,,0823.7,5.00,0.00,30.5,29.4,00.0,39.3,32.4,22.5,0000.0,0009.03,0003.83,0003.34
2022-08-27 11:11:00,,0823.7,5.00,0.00,30.6,29.4,00.0,39.4,32.4,22.4,0000.0,0009.10,0003.81,0003.33
2022-08-27 11:12:00,,0823.7,4.99,0.00,30.6,29.4,00.0,39.4,32.4,22.4,0000.0,0009.07,0003.80,0003.34
2022-08-27 11:13:00,,0823.7,5.01,0.00,30.6,29.4,00.0,39.4,32.4,22.4,0000.0,0009.15,0003.82,0003.35
2022-08-27 11:14:00,,0823.7,4.99,0.00,30.6,29.4,00.0,39.4,32.4,22.3,0000.0,0009.20,0003.86,0003.36
2022-08-27 11:15:00,,0823.7,5.00,0.00,30.6,29.5,00.0,39.4,32.4,22.1,0000.0,0008.66,0003.85,0003.36
2022-08-27 11:16:00,,0823.8,5.00,0.00,30.6,29.5,00.0,39.4,32.4,22.1,0000.0,0008.61,0003.85,0003.37
2022-08-27 11:17:00,,0823.7,4.99,0.00,30.6,29.5,00.0,39.4,32.5,22.1,0000.0,0008.63,0003.86,0003.38
2022-08-27 11:18:00,,0823.8,5.01,0.00,30.6,29.5,00.0,39.4,32.5,22.2,0000.0,0008.65,0003.86,0003.38
2022-08-27 11:19:00,,0823.8,5.00,0.00,30.7,29.5,00.0,39.4,32.5,22.3,0000.0,0007.92,0003.84,0003.38
2022-08-27 11:20:00,,0823.7,5.00,0.00,30.7,29.5,00.0,39.5,32.5,22.1,0000.0,0008.09,0003.85,0003.40
2022-08-27 11:21:00,,0823.8,5.00,0.00,30.7,29.5,00.0,39.5,32.5,22.0,0000.0,0007.91,0003.86,0003.40
2022-08-27 11:22:00,,0823.8,4.99,0.00,30.7,29.5,00.0,39.5,32.5,22.0,0000.0,0007.80,0003.86,0003.40
2022-08-27 11:23:00,,0823.8,5.00,0.00,30.7,29.5,00.0,39.5,32.5,22.1,0000.0,0007.81,0003.86,0003.40
2022-08-27 11:24:00,,0823.7,5.02,0.00,30.7,29.5,00.0,39.5,32.5,22.1,0000.0,0007.86,0003.85,0003.39
2022-08-27 11:25:00,,0823.8,4.99,0.00,30.7,29.5,00.0,39.5,32.5,22.1,0000.0,0007.86,0003.82,0003.39
2022-08-27 11:26:00,,0823.7,5.01,0.00,30.7,29.6,00.0,39.5,32.5,22.0,0000.0,0008.70,0003.83,0003.39
2022-08-27 11:27:00,,0823.7,4.99,0.00,30.8,29.5,00.0,39.5,32.5,21.9,0000.0,0008.31,0003.81,0003.38
2022-08-27 11:28:00,,0823.8,5.01,0.00,30.8,29.5,00.0,39.5,32.5,21.9,0000.0,0008.22,0003.78,0003.39
2022-08-27 11:29:00,,0823.7,4.99,0.00,30.8,29.6,00.0,39.6,32.5,21.9,0000.0,0008.22,0003.79,0003.39
2022-08-27 11:30:00,,0823.7,5.01,0.00,30.8,29.6,00.0,39.6,32.5,22.0,0000.0,0008.32,0003.80,0003.39
2022-08-27 11:31:00,,0823.8,4.99,0.00,30.8,29.6,00.0,39.6,32.5,22.0,0000.0,0008.57,0003.79,0003.38
2022-08-27 11:32:00,,0823.8,5.00,0.00,30.8,29.6,00.0,39.6,32.6,22.0,0000.0,0008.97,0003.78,0003.39
2022-08-27 11:33:00,,0823.8,4.99,0.00,30.8,29.6,00.0,39.6,32.6,22.0,0000.0,0009.04,0003.78,0003.39
2022-08-27 11:34:00,,0823.8,5.01,0.00,30.8,29.6,00.0,39.6,32.6,21.9,0000.0,0008.98,0003.77,0003.40
2022-08-27 11:35:00,,0823.8,5.00,0.00,30.8,28.8,00.0,39.6,32.6,21.8,0000.0,0009.01,0003.77,0003.40
2022-08-27 11:36:00,,0823.7,5.01,0.00,30.8,27.4,00.0,39.5,32.4,21.9,0000.0,0009.07,0003.76,0003.40
2022-08-27 11:37:00,,0823.7,4.99,0.00,30.7,27.1,00.0,39.5,32.3,22.1,0000.0,0008.25,0003.76,0003.40
2022-08-27 11:38:00,,0823.8,5.01,0.00,30.6,27.2,00.0,39.4,32.1,22.2,0000.0,0008.26,0003.78,0003.41
2022-08-27 11:39:00,,0823.8,5.01,0.00,30.5,27.6,00.0,39.4,32.1,22.7,0000.0,0008.23,0003.78,0003.41
2022-08-27 11:40:00,,0823.8,4.99,0.00,30.5,27.9,00.0,39.4,32.1,23.5,0000.0,0008.39,0003.78,0003.42
2022-08-27 11:41:00,,0823.8,5.00,0.00,30.4,28.2,00.0,39.3,32.1,23.6,0000.0,0008.42,0003.79,0003.43
2022-08-27 11:42:00,,0823.8,5.01,0.00,30.4,28.4,00.0,39.3,32.1,23.5,0000.0,0008.20,0003.81,0003.45
2022-08-27 11:43:00,,0823.8,5.00,0.00,30.4,28.5,00.0,39.3,32.1,23.4,0000.0,0007.19,0003.84,0003.46
2022-08-27 11:44:00,,0823.8,4.99,0.00,30.4,28.7,00.0,39.3,32.1,23.5,0000.0,0007.87,0003.88,0003.48
2022-08-27 11:45:00,,0823.8,5.00,0.00,30.4,28.8,00.0,39.3,32.1,23.6,0000.0,0008.25,0003.94,0003.51
2022-08-27 11:46:00,,0823.8,4.99,0.00,30.4,28.8,00.0,39.3,32.1,23.3,0000.0,0008.19,0003.97,0003.54
2022-08-27 11:47:00,,0823.9,5.00,0.00,30.4,28.9,00.0,39.3,32.1,23.2,0000.0,0008.05,0004.00,0003.56
2022-08-27 11:48:00,,0823.9,5.01,0.00,30.4,29.0,00.0,39.2,32.1,23.3,0000.0,0008.03,0004.02,0003.58
2022-08-27 11:49:00,,0823.9,5.00,0.00,30.4,29.0,00.0,39.2,32.2,23.4,0000.0,0008.53,0004.05,0003.59
2022-08-27 11:50:00,,0823.8,5.00,0.00,30.4,29.1,00.0,39.2,32.2,23.5,0000.0,0008.81,0004.09,0003.60
2022-08-27 11:51:00,,0823.8,5.00,0.00,30.4,29.1,00.0,39.2,32.2,23.6,0000.0,0008.75,0004.14,0003.61
2022-08-27 11:52:00,,0823.8,5.00,0.00,30.4,29.1,00.0,39.2,32.2,23.8,0000.0,0008.72,0004.15,0003.63
2022-08-27 11:53:00,,0823.8,5.01,0.00,30.4,29.1,00.0,39.2,32.2,23.7,0000.0,0008.66,0004.14,0003.63
2022-08-27 11:54:00,,0823.8,5.00,0.00,30.4,29.2,00.0,39.3,32.2,23.7,0000.0,0008.76,0004.12,0003.63
2022-08-27 11:55:00,,0823.8,5.01,0.00,30.4,29.2,00.0,39.3,32.2,23.7,0000.0,0008.05,0004.12,0003.63
2022-08-27 11:56:00,,0823.8,4.99,0.00,30.4,29.2,00.0,39.3,32.2,23.7,0000.0,0007.90,0004.11,0003.62
2022-08-27 11:57:00,,0823.8,4.99,0.00,30.5,29.2,00.0,39.3,32.3,23.5,0000.0,0008.61,0004.14,0003.62
2022-08-27 11:58:00,,0824.0,5.01,0.00,30.5,29.3,00.0,39.3,32.3,23.5,0000.0,0009.26,0004.14,0003.62
2022-08-27 11:59:00,,0824.0,4.99,0.00,30.5,29.3,00.0,39.3,32.3,23.5,0000.0,0009.77,0004.14,0003.63
